Home > Weather > Dausa > Past weeks

Flag for India Weather for the Past 2 Weeks in Dausa, Rajasthan, India

Now
104 °F

Scattered clouds.


Feels Like: 98 °F
Forecast: 77 / 104 °F
Wind: 6 mph from North

Location: Jaipur / Sanganer

Current Time: May 3, 2016 at 4:28:47 PM

Latest Report: May 3, 2016 at 3:30 PM


Visibility: 2 mi

Pressure: 29.68 "Hg

Humidity: 9%

Dew Point: 36 °F

Location of DausaLocation

Historic Weather in Dausa — Graph

°F

Dausa Temperature Yesterday

Maximum temperature yesterday: 106 °F (at 1:30 PM)
Minimum temperature yesterday: 88 °F (at 6:30 AM)
Average temperature yesterday: 96 °F

High & Low Weather Summary for the Past Weeks

 TemperatureHumidityPressure
High108 °F (May 1, 1:00 PM)32% (Apr 21, 6:30 AM)29.92 "Hg (Apr 21, 6:30 AM)
Low75 °F (Apr 24, 6:30 AM)2% (Apr 24, 11:00 AM)29.59 "Hg (Apr 22, 5:00 PM)
Average93 °F13%29.75 "Hg
* Reported Apr 18 3:30 PM — May 3 3:30 PM, Dausa, Weather by CustomWeather, © 2016

Note: Actual official high and low records may vary slightly from our data, if they occured in-between our weather recording intervals... More about our weather records

Advertising

Dausa Weather History for the Previous 24 Hours

Scroll right to see more
 ConditionsComfort  
Time TempWeatherWind HumidityBarometerVisibility
3:30 PM
Tue, May 3
104 °FScattered clouds.6 mph9%29.68 "Hg1 mi
2:00 PM102 °FHaze.7 mph11%29.74 "Hg1 mi
1:30 PM100 °FPartly sunny.7 mph12%29.74 "Hg1 mi
1:00 PM100 °FPartly sunny.8 mph14%29.77 "Hg1 mi
12:00 PM99 °FPartly sunny.6 mph18%29.80 "Hg1 mi
11:30 AM99 °FPartly sunny.10 mph18%29.80 "Hg1 mi
11:00 AM99 °FScattered clouds.9 mph19%29.80 "Hg1 mi
10:30 AM95 °FScattered clouds.9 mph23%29.80 "Hg1 mi
10:00 AM95 °FScattered clouds.9 mph25%29.80 "Hg1 mi
9:00 AM91 °FScattered clouds.7 mph26%29.80 "Hg1 mi
8:30 AM91 °FScattered clouds.8 mph26%29.80 "Hg1 mi
8:00 AM90 °FScattered clouds.5 mph27%29.77 "Hg1 mi
7:00 AM88 °FScattered clouds.1 mph25%29.74 "Hg1 mi
6:00 AM90 °FPassing clouds.2 mph24%29.74 "Hg1 mi
5:00 AM91 °FPassing clouds.3 mph21%29.71 "Hg1 mi
4:00 AM90 °FThunderstorms. Passing clouds.8 mph22%29.68 "Hg1 mi
3:00 AM93 °FThunderstorms. Partly cloudy.7 mph15%29.68 "Hg1 mi
2:00 AM91 °FThunderstorms. Partly cloudy.28 mph20%29.68 "Hg1 mi
1:00 AM90 °FPartly cloudy.No wind20%29.71 "Hg1 mi
12:00 AM93 °FPartly cloudy.5 mph16%29.71 "Hg1 mi
11:30 PM
Mon, May 2
93 °FPartly cloudy.3 mph17%29.74 "Hg1 mi
11:00 PM93 °FPartly cloudy.2 mph16%29.74 "Hg1 mi
10:30 PM93 °FPartly cloudy.6 mph16%29.71 "Hg1 mi
10:00 PM93 °FPartly cloudy.8 mph16%29.71 "Hg1 mi
9:30 PM95 °FPartly cloudy.8 mph14%29.71 "Hg1 mi
9:00 PM95 °FPartly cloudy.9 mph14%29.71 "Hg1 mi
8:30 PM97 °FPartly cloudy.7 mph12%29.71 "Hg1 mi
8:00 PM99 °FPartly cloudy.10 mph10%29.71 "Hg1 mi
7:30 PM97 °FPartly cloudy.6 mph12%29.71 "Hg1 mi
7:00 PM99 °FBroken clouds.13 mph10%29.68 "Hg1 mi
6:30 PM99 °FBroken clouds.18 mph10%29.68 "Hg1 mi
6:00 PM99 °FBroken clouds.8 mph10%29.68 "Hg1 mi
5:30 PM99 °FBroken clouds.13 mph10%29.68 "Hg1 mi
5:00 PM99 °FBroken clouds.22 mph11%29.68 "Hg1 mi
4:30 PM99 °FBroken clouds.21 mph12%29.68 "Hg1 mi
4:00 PM97 °FBroken clouds.30 mph13%29.68 "Hg1 mi
Weather by CustomWeather, © 2016

See weather overviewHow to use our weather pages